This is the latest recevied weather packets stored in our database for station/object KB4KY. If no packets are shown the sender has not sent any weather packets the latest 10 day(s).
| Time | Temp. | Humidity | Pressure | Rain* | Wind** | Luminosity | Snow |
|---|---|---|---|---|---|---|---|
| 1777838389 | 19.44° C | 40% | 1016 hPa | 0 mm | - | - | - |
| 1777838088 | 19.44° C | 41% | 1016.3 hPa | 0 mm | - | - | - |
| 1777837787 | 19.44° C | 40% | 1016.4 hPa | 0 mm | - | - | - |
| 1777837487 | 18.89° C | 42% | 1016.4 hPa | 0 mm | - | - | - |
| 1777837187 | 18.89° C | 45% | 1016.5 hPa | 0 mm | - | - | - |
| 1777836888 | 18.89° C | 40% | 1016.7 hPa | 0 mm | - | - | - |
| 1777836586 | 18.89° C | 39% | 1016.8 hPa | 0 mm | - | - | - |
| 1777836287 | 18.33° C | 39% | 1016.9 hPa | 0 mm | - | - | - |
| 1777835986 | 18.33° C | 41% | 1017 hPa | 0 mm | - | - | - |
| 1777835685 | 18.33° C | 44% | 1017 hPa | 0 mm | - | - | - |
| 1777835385 | 17.78° C | 40% | 1017.1 hPa | 0 mm | - | - | - |
| 1777835085 | 18.33° C | 42% | 1017.3 hPa | 0 mm | - | - | - |
| 1777834786 | 18.89° C | 39% | 1017.3 hPa | 0 mm | - | - | - |
| 1777834484 | 18.89° C | 42% | 1017.4 hPa | 0 mm | - | - | - |
| 1777834187 | 17.78° C | 43% | 1017.5 hPa | 0 mm | - | - | - |
| 1777833886 | 17.78° C | 45% | 1017.5 hPa | 0 mm | - | - | - |
| 1777833585 | 17.22° C | 37% | 1017.6 hPa | 0 mm | - | - | - |
| 1777833283 | 17.78° C | 44% | 1017.9 hPa | 0 mm | - | - | - |
| 1777832983 | 17.22° C | 37% | 1017.8 hPa | 0 mm | - | - | - |
| 1777832683 | 17.22° C | 41% | 1017.9 hPa | 0 mm | - | - | - |
| 1777832383 | 17.22° C | 40% | 1017.9 hPa | 0 mm | - | - | - |
| 1777832084 | 17.22° C | 38% | 1018 hPa | 0 mm | - | - | - |
| 1777831783 | 17.22° C | 42% | 1018 hPa | 0 mm | - | - | - |
| 1777831483 | 17.22° C | 45% | 1018.2 hPa | 0 mm | - | - | - |
| 1777831181 | 16.67° C | 44% | 1018.1 hPa | 0 mm | - | - | - |
* Rain latest hour (hover to see other rain measurements)
** Current wind speed in m/s (hover to see current wind gust speed)